Regional Weather Roundup
Issued by NWS Charleston, SC

Current Version | Previous Version | Graphics & Text | Print | Product List | Glossary On
Versions: 1 2 3 4 5 6 7 8 9 10 11 12 13 14 15 16 17 18 19 20 21 22 23 24 25 26 27 28 29 30 31 32 33 34 35 36 37 38 39 40 41 42 43 44 45 46 47 48 49 50
000
ASUS42 KCHS 122313
RWRCHS

REGIONAL WEATHER ROUNDUP
NATIONAL WEATHER SERVICE CHARLESTON SC
600 PM EST FRI FEB 12 2016

NOTE: "FAIR" INDICATES FEW OR NO CLOUDS BELOW 12,000 FEET WITH NO
SIGNIFICANT WEATHER AND/OR OBSTRUCTIONS TO VISIBILITY.

NOT ALL STATIONS ARE QUALITY CONTROLLED BY THE NATIONAL
WEATHER SERVICE. USE DATA WITH CAUTION...ESPECIALLY
DEWPOINT OBSERVATIONS.

SCZ027-030-031-034>040-042>050-130000-
...SOUTHEAST SOUTH CAROLINA...

CITY           SKY/WX    TMP DP  RH WIND       PRES   REMARKS
N CHARLESTON   PTCLDY    50  46  86 N8        30.03R
WATERFRONT PRK   N/A     52  50  93 CALM      29.87S
MOUNT PLEASANT MOCLDY    50  48  93 CALM      30.03S
JOHNS ISLAND   FAIR      52  52 100 CALM      30.03R FOG
PINOPOLIS        N/A     48  39  71 N7        29.97R
MONCKS CORNER  CLOUDY    45  34  65 N3        30.05R
SUMMERVILLE    CLOUDY    50  43  76 N5        30.06R
BEAUFORT MCAS  CLEAR     60  52  74 NW3       30.02S
BEAUFORT ARPT  FAIR      55  52  88 CALM      30.01S
HILTON HEAD IS PTCLDY    59  54  82 E5        30.04R
WALTERBORO     CLEAR     54  50  87 NW3       30.05R
ALLENDALE      FAIR      55  48  76 CALM      30.03S

...SOUTHERN MIDLANDS AND PEE DEE...

CITY           SKY/WX    TMP DP  RH WIND       PRES   REMARKS
GEORGETOWN     CLOUDY    45  34  65 NW6       30.06R
KINGSTREE      FAIR      41  28  60 CALM      30.05S
ORANGEBURG     CLEAR     52  36  54 CALM      30.04R
BARNWELL       FAIR      57  43  58 CALM      30.05R
AIKEN          FAIR      52  32  46 W6        30.07S
MANNING        FAIR      43  32  65 CALM      30.05R
COLUMBIA       CLEAR     49  30  48 CALM      30.05R
SUMTER         CLEAR     44  28  52 W3        30.03R
FLORENCE       MOCLDY    39  25  57 CALM      30.05S
MYRTLE BEACH   MOCLDY    45  27  49 NW9       30.06R
N MYRTLE BEACH PTCLDY    40  28  62 N3        30.04R

$$

GAZ063-065-086>088-099>101-113>116-118-119-134>141-150-130000-
...SOUTHEAST GEORGIA...

CITY           SKY/WX    TMP DP  RH WIND       PRES   REMARKS
SAVANNAH ARPT  PTCLDY    65  49  56 W13       30.03R
HUNTER AAF     CLEAR     65  52  63 W12       30.01R
FORT STEWART   CLEAR     66  51  59 W7        30.01S
STATESBORO     PTCLDY    66  46  48 W7        30.03S
SYLVANIA       CLEAR     60  52  73 NW7       30.04R
CLAXTON        FAIR      65  54  68 SW6       30.04R

...CSRA...CENTRAL AND FAR SOUTHEAST GEORGIA...

CITY           SKY/WX    TMP DP  RH WIND       PRES   REMARKS
THOMSON        CLEAR     56  39  52 CALM      30.08S
AUGUSTA-BUSH   CLEAR     55  38  52 NW8       30.04R
AUGUSTA-DANIEL CLEAR     54  36  50 N5        30.05R
SWAINSBORO     FAIR      61  50  67 SW5       30.04S
VIDALIA        CLEAR     64  50  59 SW8       30.05R
EASTMAN        FAIR      66  49  54 W5        30.08R
HAZLEHURST     FAIR      66  51  57 W5        30.05S
ALMA           CLEAR     68  51  54 W7        30.06R
WAYCROSS       PTCLDY    72  55  55 NW9       30.05R
JESUP          FAIR      70  55  60 W9        30.05R
BAXLEY         FAIR      68  52  56 W6        30.05S
BRUNSWICK      MOCLDY    70  54  56 W5        30.05R
SAINT SIMONS   MOCLDY    69  52  54 NW5       30.03R

$$

SCZ027-028-034-036>038-045-046-048>050-GAZ119-141-130000-
...LAKE AND SUPPLEMENTAL COASTAL OBSERVATIONS...

STATION/POSITION TIME  TEMP    WIND        PRES    WAVE   SWELL
                       AIR SEA DIR/SP/G            HT/PER HT/PER/DIR
                 (UTC) (F)     (DEG/KT/KT) (MB)    (FT/S) (FT/S/D)
WINYAH BAY       NOT AVBL
LAKE MURRAY      2200   48     210/  3/  4 1016.6R
ACE BASIN NERRS  NOT AVBL
FORT PULASKI     2200   64 50  260/  9/ 11 1016.7R
SAPELO ISLAND    2200   69     260/ 10     1016.0S

$$

ANZ835-935-AMZ111-154-330-350-352-354-370-450-454-472-130000-
...C-MAN AND BUOY OBSERVATIONS...

STATION/POSITION TIME  TEMP    WIND        PRES    WAVE   SWELL
                       AIR SEA DIR/SP/G            HT/PER HT/PER/DIR
                 (UTC) (F)     (DEG/KT/KT) (MB)    (FT/S) (FT/S/D)
BUOY 41004       2250   55 67  330/ 10/ 12 1016.3R   5/ 7   5/ 7
BUOY 41008       2250   58 54  230/  2/  4 1017.5R   2/ 6   2/160/ 6
FOLLY BEACH CMAN 2300   48      50/  4/  5 1016.9R
CAPERS NEARSHORE 2208   48      50/  6/ 10 1016.7S
FRIPP NEARSHORE  2200   53     110/  4/  4 1016.4S


STATION/POSITION TIME  TEMP    WIND        PRES    WAVE   SWELL
                       AIR SEA DIR/SP/G            HT/PER HT/PER/DIR
                 (UTC) (F)     (DEG/KT/KT) (MB)    (FT/S) (FT/S/D)
5E ST. MARYS GA  2221      56                N/A     2/ 5
FRYING PAN BUOY  2200   45 53  350/ 16/ 19 1016.5R
BUOY 41025       2250   44 61  360/ 21/ 27 1014.4R   6/ 6   2/ 20/13
CAPE LOOKOUT NC  NOT AVBL
BUOY 41002       2250   67 68  240/ 37/ 43   N/A    16/ 8
BUOY 41010       2220   70 72              1021.2R
ST AUGUSTINE FL  2300   69 59  250/ 15/ 20 1020.0R


$$



USA.gov is the U.S. government's official web portal to all federal, state and local government web resources and services.